Time,TemperatureF,DewpointF,PressureIn,WindDirection,WindDirectionDegrees,WindSpeedMPH,WindSpeedGustMPH,Humidity,HourlyPrecipIn,Conditions,Clouds,dailyrainin,SoftwareType,DateUTC
2013-11-01 00:12:00,41.0,32.0,29.67,South,184,0.0,0.0,70,0.00,,,0.01,,2013-11-01 05:12:00,
2013-11-01 00:23:00,40.0,32.0,29.67,South,184,0.0,0.0,72,0.00,,,0.01,,2013-11-01 05:23:00,
2013-11-01 00:42:00,39.0,32.0,29.67,South,184,0.0,0.0,75,0.00,,,0.01,,2013-11-01 05:42:00,
2013-11-01 00:53:00,38.0,31.0,29.68,South,184,0.0,0.0,75,0.00,,,0.01,,2013-11-01 05:53:00,
2013-11-01 01:12:00,38.0,31.0,29.68,South,184,0.0,0.0,76,0.00,,,0.01,,2013-11-01 06:12:00,
2013-11-01 01:22:00,38.0,31.0,29.69,South,184,0.0,1.0,76,0.00,,,0.01,,2013-11-01 06:22:00,
2013-11-01 01:42:00,38.0,31.0,29.69,South,184,0.0,3.0,77,0.00,,,0.01,,2013-11-01 06:42:00,
2013-11-01 01:52:00,38.0,31.0,29.69,South,184,0.0,2.0,75,0.00,,,0.01,,2013-11-01 06:52:00,
2013-11-01 02:12:00,39.0,31.0,29.70,South,190,1.0,3.0,74,0.00,,,0.01,,2013-11-01 07:12:00,
2013-11-01 02:21:00,38.0,31.0,29.70,SSW,193,0.0,3.0,76,0.00,,,0.01,,2013-11-01 07:21:00,
2013-11-01 02:42:00,38.0,31.0,29.70,SSW,193,0.0,0.0,76,0.00,,,0.01,,2013-11-01 07:42:00,
2013-11-01 02:52:00,38.0,31.0,29.70,SSW,193,1.0,5.0,77,0.00,,,0.01,,2013-11-01 07:52:00,
2013-11-01 03:12:00,39.0,32.0,29.70,South,173,0.0,4.0,75,0.00,,,0.01,,2013-11-01 08:12:00,
2013-11-01 03:21:00,40.0,33.0,29.70,South,181,1.0,3.0,75,0.00,,,0.01,,2013-11-01 08:21:00,
2013-11-01 03:42:00,40.0,33.0,29.71,SSW,194,2.0,5.0,75,0.00,,,0.01,,2013-11-01 08:42:00,
2013-11-01 03:52:00,40.0,32.0,29.71,South,182,2.0,4.0,74,0.00,,,0.01,,2013-11-01 08:52:00,
2013-11-01 04:11:00,41.0,33.0,29.72,South,170,0.0,0.0,74,0.00,,,0.01,,2013-11-01 09:11:00,
2013-11-01 04:21:00,41.0,33.0,29.72,South,186,1.0,2.0,74,0.00,,,0.01,,2013-11-01 09:21:00,
2013-11-01 04:43:00,41.0,33.0,29.72,SSW,193,0.0,2.0,74,0.00,,,0.01,,2013-11-01 09:43:00,
2013-11-01 04:53:00,42.0,34.0,29.72,SSW,211,0.0,3.0,73,0.00,,,0.01,,2013-11-01 09:53:00,
2013-11-01 05:23:00,43.0,35.0,29.73,South,184,1.0,4.0,73,0.00,,,0.01,,2013-11-01 10:23:00,
2013-11-01 05:53:00,43.0,35.0,29.75,SSW,193,1.0,7.0,72,0.00,,,0.01,,2013-11-01 10:53:00,
2013-11-01 06:12:00,43.0,35.0,29.75,SSW,196,3.0,7.0,73,0.00,,,0.01,,2013-11-01 11:12:00,
2013-11-01 06:22:00,42.0,34.0,29.76,South,178,4.0,7.0,74,0.00,,,0.01,,2013-11-01 11:22:00,
2013-11-01 06:42:00,42.0,35.0,29.77,South,190,2.0,6.0,75,0.00,,,0.01,,2013-11-01 11:42:00,
2013-11-01 06:52:00,42.0,35.0,29.78,SSW,192,1.0,7.0,76,0.00,,,0.01,,2013-11-01 11:52:00,
2013-11-01 07:12:00,41.0,34.0,29.79,SSW,203,0.0,3.0,77,0.00,,,0.01,,2013-11-01 12:12:00,
2013-11-01 07:22:00,42.0,35.0,29.80,ESE,102,4.0,10.0,76,0.00,,,0.01,,2013-11-01 12:22:00,
2013-11-01 07:42:00,43.0,36.0,29.80,SSW,192,2.0,8.0,75,0.00,,,0.01,,2013-11-01 12:42:00,
2013-11-01 07:52:00,43.0,36.0,29.81,SSW,196,0.0,6.0,76,0.00,,,0.01,,2013-11-01 12:52:00,
2013-11-01 08:12:00,42.0,36.0,29.82,SSW,203,3.0,7.0,78,0.00,,,0.01,,2013-11-01 13:12:00,
2013-11-01 08:22:00,41.0,35.0,29.83,SSW,202,2.0,7.0,79,0.00,,,0.01,,2013-11-01 13:22:00,
2013-11-01 08:42:00,40.0,34.0,29.83,SSW,213,1.0,7.0,80,0.00,,,0.01,,2013-11-01 13:42:00,
2013-11-01 08:52:00,40.0,35.0,29.83,SSW,195,3.0,7.0,81,0.00,,,0.01,,2013-11-01 13:52:00,
2013-11-01 09:22:00,41.0,36.0,29.85,SW,222,4.0,11.0,82,0.00,,,0.01,,2013-11-01 14:22:00,
2013-11-01 09:42:00,42.0,36.0,29.86,SSW,207,3.0,9.0,79,0.00,,,0.01,,2013-11-01 14:42:00,
2013-11-01 09:52:00,42.0,36.0,29.87,SW,216,3.0,6.0,79,0.00,,,0.01,,2013-11-01 14:52:00,
2013-11-01 10:22:00,44.0,36.0,29.88,South,181,5.0,10.0,74,0.00,,,0.01,,2013-11-01 15:22:00,
2013-11-01 10:43:00,44.0,36.0,29.88,SSW,196,5.0,15.0,74,0.00,,,0.00,,2013-11-01 15:43:00,
2013-11-01 10:54:00,45.0,37.0,29.88,SSE,163,6.0,10.0,73,0.00,,,0.00,,2013-11-01 15:54:00,
2013-11-01 11:12:00,47.0,37.0,29.88,South,188,3.0,11.0,67,0.00,,,0.00,,2013-11-01 16:12:00,
2013-11-01 11:23:00,47.0,37.0,29.88,South,188,3.0,11.0,67,0.00,,,0.00,,2013-11-01 16:23:00,
2013-11-01 11:43:00,49.0,35.0,29.88,South,182,4.0,13.0,58,0.00,,,0.00,,2013-11-01 16:43:00,
2013-11-01 11:53:00,50.0,35.0,29.88,SSW,202,4.0,9.0,56,0.00,,,0.00,,2013-11-01 16:53:00,
2013-11-01 12:12:00,51.0,34.0,29.88,SSW,200,6.0,13.0,52,0.00,,,0.00,,2013-11-01 17:12:00,
2013-11-01 12:22:00,52.0,34.0,29.88,South,184,8.0,16.0,50,0.00,,,0.00,,2013-11-01 17:22:00,
2013-11-01 12:43:00,53.0,34.0,29.88,SW,215,5.0,15.0,49,0.00,,,0.00,,2013-11-01 17:43:00,
2013-11-01 12:52:00,53.0,33.0,29.88,SW,225,5.0,15.0,46,0.00,,,0.00,,2013-11-01 17:52:00,
2013-11-01 13:12:00,54.0,34.0,29.88,SW,215,8.0,16.0,47,0.00,,,0.00,,2013-11-01 18:12:00,
2013-11-01 13:22:00,54.0,33.0,29.89,South,190,5.0,14.0,45,0.00,,,0.00,,2013-11-01 18:22:00,
2013-11-01 13:42:00,53.0,32.0,29.88,SSE,156,5.0,12.0,45,0.00,,,0.00,,2013-11-01 18:42:00,
2013-11-01 13:52:00,54.0,31.0,29.88,South,191,4.0,13.0,42,0.00,,,0.00,,2013-11-01 18:52:00,
2013-11-01 14:12:00,55.0,32.0,29.88,SSW,207,5.0,14.0,41,0.00,,,0.00,,2013-11-01 19:12:00,
2013-11-01 14:21:00,55.0,31.0,29.88,South,186,5.0,16.0,40,0.00,,,0.00,,2013-11-01 19:21:00,
2013-11-01 14:42:00,55.0,31.0,29.88,SSW,198,3.0,8.0,39,0.00,,,0.00,,2013-11-01 19:42:00,
2013-11-01 14:52:00,56.0,29.0,29.88,South,171,8.0,16.0,36,0.00,,,0.00,,2013-11-01 19:52:00,
2013-11-01 15:02:00,56.0,29.0,29.88,South,171,8.0,16.0,36,0.00,,,0.00,,2013-11-01 20:02:00,
2013-11-01 15:12:00,56.0,29.0,29.88,South,171,8.0,16.0,36,0.00,,,0.00,,2013-11-01 20:12:00,
2013-11-01 15:22:00,56.0,27.0,29.87,South,176,6.0,20.0,33,0.00,,,0.00,,2013-11-01 20:22:00,
2013-11-01 15:42:00,55.0,28.0,29.87,SSW,203,3.0,11.0,35,0.00,,,0.00,,2013-11-01 20:42:00,
2013-11-01 15:52:00,54.0,26.0,29.88,South,171,8.0,20.0,33,0.00,,,0.00,,2013-11-01 20:52:00,
2013-11-01 16:12:00,53.0,26.0,29.88,SW,220,4.0,12.0,35,0.00,,,0.00,,2013-11-01 21:12:00,
2013-11-01 16:22:00,53.0,27.0,29.89,SSE,166,10.0,25.0,37,0.00,,,0.00,,2013-11-01 21:22:00,
2013-11-01 16:43:00,53.0,26.0,29.89,SW,217,4.0,18.0,35,0.00,,,0.00,,2013-11-01 21:43:00,
2013-11-01 16:55:00,53.0,26.0,29.90,South,173,6.0,17.0,35,0.00,,,0.00,,2013-11-01 21:55:00,
2013-11-01 17:24:00,52.0,29.0,29.92,SSW,209,9.0,19.0,41,0.00,,,0.00,,2013-11-01 22:24:00,
2013-11-01 17:42:00,51.0,30.0,29.92,SSW,196,4.0,14.0,44,0.00,,,0.00,,2013-11-01 22:42:00,
2013-11-01 17:53:00,52.0,28.0,29.92,South,188,6.0,15.0,39,0.00,,,0.00,,2013-11-01 22:53:00,
2013-11-01 18:12:00,51.0,26.0,29.93,South,189,4.0,13.0,38,0.00,,,0.00,,2013-11-01 23:12:00,
2013-11-01 18:22:00,51.0,24.0,29.94,North,351,5.0,10.0,34,0.00,,,0.00,,2013-11-01 23:22:00,
2013-11-01 18:42:00,50.0,23.0,29.95,South,191,4.0,12.0,35,0.00,,,0.00,,2013-11-01 23:42:00,
2013-11-01 18:53:00,50.0,23.0,29.96,ESE,121,5.0,13.0,35,0.00,,,0.00,,2013-11-01 23:53:00,
2013-11-01 19:02:00,50.0,23.0,29.96,ESE,121,5.0,13.0,35,0.00,,,0.00,,2013-11-02 00:02:00,
2013-11-01 19:11:00,50.0,23.0,29.96,ESE,121,5.0,13.0,35,0.00,,,0.00,,2013-11-02 00:11:00,
2013-11-01 19:22:00,48.0,23.0,29.98,ESE,115,3.0,9.0,37,0.00,,,0.00,,2013-11-02 00:22:00,
2013-11-01 19:42:00,48.0,24.0,29.99,South,180,2.0,8.0,39,0.00,,,0.00,,2013-11-02 00:42:00,
2013-11-01 19:52:00,47.0,24.0,30.00,South,180,3.0,6.0,40,0.00,,,0.00,,2013-11-02 00:52:00,
2013-11-01 20:12:00,46.0,24.0,30.01,SSW,198,0.0,6.0,42,0.00,,,0.00,,2013-11-02 01:12:00,
2013-11-01 20:22:00,45.0,24.0,30.01,SW,216,0.0,1.0,44,0.00,,,0.00,,2013-11-02 01:22:00,
2013-11-01 20:42:00,44.0,25.0,30.02,South,184,0.0,1.0,46,0.00,,,0.00,,2013-11-02 01:42:00,
2013-11-01 20:52:00,43.0,25.0,30.03,SSW,195,0.0,3.0,48,0.00,,,0.00,,2013-11-02 01:52:00,
2013-11-01 21:11:00,42.0,25.0,30.03,SW,217,0.0,1.0,50,0.00,,,0.00,,2013-11-02 02:11:00,
2013-11-01 21:22:00,41.0,24.0,30.03,SSW,213,0.0,3.0,51,0.00,,,0.00,,2013-11-02 02:22:00,
2013-11-01 21:42:00,40.0,24.0,30.04,SSW,208,0.0,0.0,53,0.00,,,0.00,,2013-11-02 02:42:00,
2013-11-01 21:52:00,40.0,25.0,30.04,SW,221,0.0,0.0,54,0.00,,,0.00,,2013-11-02 02:52:00,
2013-11-01 22:11:00,39.0,25.0,30.05,SW,221,0.0,0.0,56,0.00,,,0.00,,2013-11-02 03:11:00,
2013-11-01 22:22:00,38.0,25.0,30.05,SW,221,0.0,0.0,58,0.00,,,0.00,,2013-11-02 03:22:00,
2013-11-01 22:44:00,36.0,24.0,30.06,SW,221,0.0,0.0,62,0.00,,,0.00,,2013-11-02 03:44:00,
2013-11-01 22:53:00,36.0,25.0,30.07,SW,221,0.0,0.0,63,0.00,,,0.00,,2013-11-02 03:53:00,
2013-11-01 23:13:00,36.0,25.0,30.07,SW,221,0.0,0.0,63,0.00,,,0.00,,2013-11-02 04:13:00,
2013-11-01 23:24:00,36.0,25.0,30.07,SSW,202,0.0,4.0,63,0.00,,,0.00,,2013-11-02 04:24:00,
2013-11-01 23:43:00,35.0,24.0,30.08,SSW,199,0.0,0.0,63,0.00,,,0.00,,2013-11-02 04:43:00,
2013-11-01 23:54:00,35.0,24.0,30.08,SSW,207,0.0,0.0,63,0.00,,,0.00,,2013-11-02 04:54:00,